Williamsburg, VA

1:02 AM EDT on July 26, 2017 (GMT -0400)
Williamsburg-jamestown

Weather History for KJGG - November, 2012

Change the Weather History Date:

Saturday, November 17, 2012

  Actual Average Record
Temperature  
Mean Temperature 47 °F -  
Max Temperature 59 °F 61 °F 80 °F (1964)
Min Temperature 35 °F 36 °F 23 °F (1967)
Degree Days  
Heating Degree Days 18    
Moisture  
Dew Point 39 °F    
Average Humidity 81    
Maximum Humidity 100    
Minimum Humidity 51    
Precipitation  
Precipitation 0.00 in - - ()
Sea Level Pressure  
Sea Level Pressure 30.49 in    
Wind  
Wind Speed 4 mph (NNE)    
Max Wind Speed 7 mph    
Max Gust Speed -    
Visibility 9 miles    
Events      
Averages and records for this station are not official NWS values.
T = Trace of Precipitation, MM = Missing Value Source: NWS Daily Summary

Daily Weather History Graph

Daily Weather History Graph

Search for Another Location

Airport or City:

Trip Planner

Search our weather history database for the weather conditions in past years. The results will help you decide how hot, cold, wet, or windy it might be!

Date:

Astronomy

Nov. 17, 2012 Rise Set
Actual Time 6:48 AM EST 4:55 PM EST
Civil Twilight 6:20 AM EST 5:22 PM EST
Nautical Twilight 5:48 AM EST 5:54 PM EST
Astronomical Twilight 5:18 AM EST 6:25 PM EST
Moon 10:31 AM EST (11/17) 9:02 PM EST (11/17)
Length of Visible Light 11h 02m
Length of Day
10h 06m
Waxing Crescent, 20% of the Moon is Illuminated
Nov 17
Waxing Crescent
Nov 20
First Quarter
Nov 28
Full
Dec 6
Last Quarter
Dec 13
New

Hourly Weather History & Observations

Time (EST) Temp. Windchill Dew Point Humidity Pressure Visibility Wind Dir Wind Speed Gust Speed Precip Events Conditions
12:15 AM 35.6 °F 31.7 °F 33.8 °F 93% 30.42 in 10.0 mi North 4.6 mph - N/A   Clear
12:35 AM 35.6 °F 32.8 °F 33.8 °F 93% 30.41 in 10.0 mi North 3.5 mph - N/A   Clear
12:55 AM 37.4 °F 34.9 °F 35.6 °F 93% 30.41 in 10.0 mi North 3.5 mph - N/A   Clear
1:15 AM 35.6 °F 32.8 °F 33.8 °F 93% 30.41 in 10.0 mi North 3.5 mph - N/A   Clear
1:35 AM 35.6 °F 32.8 °F 33.8 °F 93% 30.42 in 10.0 mi North 3.5 mph - N/A   Clear
1:55 AM 35.6 °F 32.8 °F 33.8 °F 93% 30.42 in 10.0 mi North 3.5 mph - N/A   Clear
2:15 AM 35.6 °F 31.7 °F 33.8 °F 93% 30.42 in 10.0 mi North 4.6 mph - N/A   Clear
2:35 AM 35.6 °F 32.8 °F 33.8 °F 93% 30.43 in 10.0 mi North 3.5 mph - N/A   Clear
2:55 AM 35.6 °F 31.7 °F 33.8 °F 93% 30.43 in 10.0 mi North 4.6 mph - N/A   Clear
3:15 AM 35.6 °F 32.8 °F 33.8 °F 93% 30.43 in 10.0 mi North 3.5 mph - N/A   Clear
3:35 AM 35.6 °F 31.7 °F 33.8 °F 93% 30.44 in 10.0 mi North 4.6 mph - N/A   Clear
3:55 AM 35.6 °F 32.8 °F 33.8 °F 93% 30.44 in 7.0 mi North 3.5 mph - N/A   Clear
4:15 AM 35.6 °F 32.8 °F 33.8 °F 93% 30.45 in 7.0 mi North 3.5 mph - N/A   Clear
4:35 AM 35.6 °F 32.8 °F 33.8 °F 93% 30.45 in 7.0 mi North 3.5 mph - N/A   Clear
4:55 AM 35.6 °F 32.8 °F 33.8 °F 93% 30.45 in 5.0 mi North 3.5 mph - N/A   Clear
5:15 AM 35.6 °F 31.7 °F 33.8 °F 93% 30.46 in 7.0 mi North 4.6 mph - N/A   Clear
5:35 AM 35.6 °F - 35.6 °F 100% 30.46 in 5.0 mi Calm Calm - N/A   Clear
5:55 AM 35.6 °F 32.8 °F 35.6 °F 100% 30.47 in 5.0 mi NNE 3.5 mph - N/A   Clear
6:15 AM 35.6 °F 31.7 °F 35.6 °F 100% 30.47 in 4.0 mi North 4.6 mph - N/A   Clear
6:35 AM 37.4 °F 34.9 °F 35.6 °F 93% 30.48 in 4.0 mi North 3.5 mph - N/A   Clear
6:55 AM 35.6 °F 31.7 °F 35.6 °F 100% 30.48 in 3.0 mi NNE 4.6 mph - N/A   Clear
7:15 AM 37.4 °F 32.8 °F 35.6 °F 93% 30.49 in 7.0 mi North 5.8 mph - N/A   Clear
7:35 AM 37.4 °F - 35.6 °F 93% 30.50 in 10.0 mi Calm Calm - N/A   Clear
7:55 AM 39.2 °F - 37.4 °F 93% 30.51 in 10.0 mi Calm Calm - N/A   Clear
8:15 AM 39.2 °F 35.0 °F 37.4 °F 93% 30.51 in 10.0 mi NNE 5.8 mph - N/A   Clear
8:35 AM 41.0 °F 36.4 °F 37.4 °F 87% 30.52 in 10.0 mi NNE 6.9 mph - N/A   Clear
8:55 AM 42.8 °F 38.6 °F 37.4 °F 81% 30.52 in 10.0 mi NE 6.9 mph - N/A   Clear
9:15 AM 46.4 °F 45.2 °F 39.2 °F 76% 30.52 in 10.0 mi NE 3.5 mph - N/A   Clear
9:35 AM 48.2 °F - 39.2 °F 71% 30.53 in 10.0 mi Calm Calm - N/A   Clear
9:55 AM 50.0 °F - 39.2 °F 66% 30.53 in 10.0 mi NNE 4.6 mph - N/A   Clear
10:15 AM 51.8 °F - 39.2 °F 62% 30.53 in 10.0 mi NNE 5.8 mph - N/A   Clear
10:35 AM 51.8 °F - 39.2 °F 62% 30.54 in 10.0 mi ENE 5.8 mph - N/A   Clear
10:55 AM 53.6 °F - 39.2 °F 58% 30.53 in 10.0 mi Calm Calm - N/A   Clear
11:15 AM 55.4 °F - 39.2 °F 54% 30.53 in 10.0 mi NE 3.5 mph - N/A   Clear
11:35 AM 55.4 °F - 39.2 °F 54% 30.53 in 10.0 mi NNE 6.9 mph - N/A   Clear
12:55 PM 59.0 °F - 42.8 °F 55% 30.50 in 10.0 mi ENE 3.5 mph - N/A   Scattered Clouds
1:15 PM 57.2 °F - 42.8 °F 59% 30.50 in 10.0 mi ENE 4.6 mph - N/A   Clear
1:35 PM 57.2 °F - 42.8 °F 59% 30.50 in 10.0 mi ENE 4.6 mph - N/A   Scattered Clouds
1:55 PM 57.2 °F - 41.0 °F 55% 30.49 in 10.0 mi ENE 6.9 mph - N/A   Scattered Clouds
2:15 PM 57.2 °F - 41.0 °F 55% 30.50 in 10.0 mi ENE 4.6 mph - N/A   Clear
2:35 PM 57.2 °F - 39.2 °F 51% 30.50 in 10.0 mi NE 6.9 mph - N/A   Scattered Clouds
2:55 PM 55.4 °F - 37.4 °F 51% 30.51 in 10.0 mi NE 5.8 mph - N/A   Mostly Cloudy
3:15 PM 55.4 °F - 39.2 °F 54% 30.51 in 10.0 mi NE 5.8 mph - N/A   Mostly Cloudy
3:35 PM 55.4 °F - 41.0 °F 58% 30.52 in 10.0 mi Calm Calm - N/A   Mostly Cloudy
3:55 PM 53.6 °F - 42.8 °F 67% 30.52 in 10.0 mi NE 5.8 mph - N/A   Mostly Cloudy
4:15 PM 53.6 °F - 42.8 °F 67% 30.51 in 10.0 mi Calm Calm - N/A   Mostly Cloudy
4:35 PM 51.8 °F - 42.8 °F 71% 30.52 in 10.0 mi North 6.9 mph - N/A   Overcast
4:55 PM 51.8 °F - 41.0 °F 67% 30.52 in 10.0 mi NNE 5.8 mph - N/A   Mostly Cloudy
5:15 PM 50.0 °F - 41.0 °F 71% 30.52 in 10.0 mi NE 5.8 mph - N/A   Scattered Clouds
5:35 PM 48.2 °F - 41.0 °F 76% 30.52 in 10.0 mi NNE 5.8 mph - N/A   Mostly Cloudy
5:55 PM 48.2 °F - 41.0 °F 76% 30.53 in 10.0 mi NNE 3.5 mph - N/A   Overcast
6:15 PM 48.2 °F - 42.8 °F 82% 30.53 in 10.0 mi NNE 3.5 mph - N/A   Overcast
6:35 PM 48.2 °F - 41.0 °F 76% 30.53 in 10.0 mi NNE 4.6 mph - N/A   Mostly Cloudy
6:55 PM 48.2 °F - 41.0 °F 76% 30.53 in 10.0 mi NNE 3.5 mph - N/A   Mostly Cloudy
7:15 PM 46.4 °F 45.2 °F 41.0 °F 81% 30.53 in 10.0 mi NNE 3.5 mph - N/A   Scattered Clouds
7:35 PM 46.4 °F 43.5 °F 41.0 °F 81% 30.53 in 10.0 mi NNE 5.8 mph - N/A   Scattered Clouds
7:55 PM 46.4 °F 45.2 °F 42.8 °F 87% 30.53 in 10.0 mi NNE 3.5 mph - N/A   Mostly Cloudy
8:15 PM 46.4 °F 45.2 °F 42.8 °F 87% 30.53 in 10.0 mi NNE 3.5 mph - N/A   Overcast
8:35 PM 46.4 °F 43.5 °F 42.8 °F 87% 30.53 in 10.0 mi NNE 5.8 mph - N/A   Scattered Clouds
8:55 PM 46.4 °F 43.5 °F 42.8 °F 87% 30.53 in 10.0 mi NNE 5.8 mph - N/A   Scattered Clouds
9:15 PM 46.4 °F 42.9 °F 42.8 °F 87% 30.53 in 10.0 mi NNE 6.9 mph - N/A   Scattered Clouds
9:35 PM 46.4 °F 43.5 °F 42.8 °F 87% 30.53 in 10.0 mi NNE 5.8 mph - N/A   Scattered Clouds
9:55 PM 46.4 °F 44.3 °F 42.8 °F 87% 30.52 in 10.0 mi NNE 4.6 mph - N/A   Clear
10:15 PM 44.6 °F 43.1 °F 42.8 °F 93% 30.52 in 10.0 mi NE 3.5 mph - N/A   Clear
10:35 PM 44.6 °F 41.4 °F 42.8 °F 93% 30.52 in 10.0 mi NNE 5.8 mph - N/A   Scattered Clouds
10:55 PM 46.4 °F 45.2 °F 42.8 °F 87% 30.52 in 10.0 mi NE 3.5 mph - N/A   Scattered Clouds
11:15 PM 44.6 °F 41.4 °F 42.8 °F 93% 30.51 in 10.0 mi NE 5.8 mph - N/A   Clear
11:35 PM 44.6 °F 42.2 °F 42.8 °F 93% 30.51 in 10.0 mi NE 4.6 mph - N/A   Scattered Clouds
11:55 PM 44.6 °F 43.1 °F 42.8 °F 93% 30.51 in 10.0 mi NE 3.5 mph - N/A   Scattered Clouds